Location: Marcé
(47.5801°N, 0.3280°W)
Time: 00:21:46
(UTC+01:00)

S-56A Canister/Altair - Pass Details

Date: 04 December 2021
Orbit: 633 x 2499 km, 38.9° (Epoch: 20 January)

Event Time Altitude Azimuth Distance (km) Brightness Sun altitude
Exits shadow 06:27:45 12° 214° (SW) 2,048 9.5 -20.1°
Drops below altitude 10° 06:29:20 10° 194° (SSW) 2,094 9.7 -19.9°
Sets 06:33:05 0° 161° (SSE) 2,913 11.0 -19.3°
